Tracking 22836 objects as of 16-Apr-2021
HD Live streaming from Space Station
objects crossing your sky now

SSU 1

Track SSU 1 now!
10-day predictions
SSU 1 is classified as:


NORAD ID: 8835
Int'l Code: 1976-038C
Perigee: 540.4 km
Apogee: 1,394.7 km
Inclination: 63.3 °
Period: 104.3 minutes
Semi major axis: 7338 km
RCS: Unknown
Launch date: April 30, 1976
Source: United States (US)
Launch site: AIR FORCE WESTERN TEST RANGE (AFWTR)
aabbcc
Your satellite tracking list
Your tracking list is empty




NASA's NSSDC Master Catalog

Two Line Element Set (TLE):
1  8835U 76038C   21106.16795461 -.00000079  00000-0  15379-4 0  9993
2  8835  63.3365  58.9447 0582044 155.2265 207.7969 13.80988918 97908
Source of the keplerian elements: McCants